Powrót do katalogu

STARLINK-38212

AktywnyŁącznośćSSO
NORAD 100267·PAYLOAD·🇺🇸 United States

Wystrzelony Aug 8, 2026 z Vandenberg Space Force Base

Loading…

Następne Przeloty (najbliższe 24 godziny)

TLE

ŚwieżeSource: Space-Track

Epoka: Sep 14, 2026, 15:52 UTC

1 A0267U 26181X   26257.66155765  .00164418  00000-0  10794-2 0  9993
2 A0267  97.2828 301.0055 0000994 145.9672 214.1657 15.75247629  7037

Śledź STARLINK-38212 w czasie rzeczywistym z AllMySat

Download on the App Store